FW6665 Weather Reports


time (UTC)temp
C
wind
direction
speed
KPH
gust
KPH
rain 1hr
cm
rain 24hr
cm
rain mn
cm
humidity
%
barometer
mb
20260506062205 8 289 3.2 14.5 0.00 0.00 0.00 80 1010.2
20260506061704 8 216 1.6 8.0 0.00 0.00 0.00 81 1010.2
20260506061205 8 243 1.6 9.7 0.00 0.00 0.00 81 1010.2
20260506060705 8 243 0.0 11.3 0.00 0.00 0.00 80 1010.2
20260506060204 8 240 1.6 11.3 0.00 0.00 0.00 80 1010.2
20260506051205 8 285 1.6 6.4 0.00 0.00 0.00 81 1009.9
20260506050205 8 281 0.0 8.0 0.00 0.00 0.00 82 1009.8
20260506044704 8 276 0.0 8.0 0.00 0.00 0.00 82 1009.9
20260506043709 8 289 1.6 9.7 0.00 0.00 0.00 82 1009.8
20260506042709 8 281 0.0 8.0 0.00 0.00 0.00 81 1009.8
20260506042205 8 281 0.0 8.0 0.00 0.00 0.00 81 1009.8
20260506041704 8 281 0.0 4.8 0.00 0.00 0.00 80 1009.7
20260506040204 8 278 0.0 6.4 0.00 0.00 0.00 80 1009.7
20260506035705 8 278 1.6 4.8 0.00 0.00 0.00 80 1009.6
20260506035206 8 274 0.0 6.4 0.00 0.00 0.00 80 1009.7
20260506034705 8 274 1.6 6.4 0.00 0.00 0.00 80 1009.6
20260506034205 8 272 0.0 6.4 0.00 0.00 0.00 80 1009.7
20260506033706 8 257 3.2 3.2 0.00 0.00 0.00 80 1009.7
20260506033204 8 61 1.6 3.2 0.00 0.00 0.00 80 1009.7
20260506032205 8 58 0.0 6.4 0.00 0.00 0.00 79 1009.7
20260506031704 8 55 0.0 6.4 0.00 0.00 0.00 79 1009.7
20260506031204 8 56 0.0 6.4 0.00 0.00 0.00 79 1009.7
20260506025703 9 292 0.0 6.4 0.00 0.00 0.00 80 1009.8
20260506025206 9 292 1.6 4.8 0.00 0.00 0.00 80 1009.9
20260506024705 9 309 1.6 4.8 0.00 0.00 0.00 80 1009.9
20260506024204 9 307 0.0 4.8 0.00 0.00 0.00 81 1009.9
20260506023704 9 307 0.0 4.8 0.00 0.00 0.00 81 1010.0
20260506023211 10 305 1.6 4.8 0.00 0.00 0.00 81 1010.1
20260506022705 10 299 0.0 4.8 0.00 0.00 0.00 81 1010.1
20260506022204 10 299 0.0 4.8 0.00 0.00 0.00 81 1010.0
20260506021705 10 303 0.0 4.8 0.00 0.00 0.00 81 1010.1
20260506021205 10 303 1.6 4.8 0.00 0.00 0.00 81 1010.1
20260506020704 10 303 0.0 4.8 0.00 0.00 0.00 81 1010.1
20260506015705 10 303 0.0 3.2 0.00 0.00 0.00 81 1010.1
20260506015205 10 302 0.0 3.2 0.00 0.00 0.00 81 1010.2
20260506014704 10 302 0.0 3.2 0.00 0.00 0.00 81 1010.2
20260506014204 10 302 0.0 1.6 0.00 0.00 0.00 81 1010.2
20260506013704 10 302 0.0 4.8 0.00 0.00 0.00 81 1010.2
20260506013205 10 302 0.0 4.8 0.00 0.00 0.00 81 1010.3
20260506012704 10 302 0.0 4.8 0.00 0.00 0.00 80 1010.3
20260506012204 10 302 1.6 3.2 0.00 0.00 0.00 80 1010.2
20260506011705 10 299 0.0 3.2 0.00 0.00 0.00 80 1010.2
20260506011204 10 299 0.0 3.2 0.00 0.00 0.00 80 1010.2
20260506010205 10 299 0.0 3.2 0.00 0.00 0.00 80 1010.2
20260506005704 10 299 0.0 3.2 0.00 0.00 0.00 80 1010.2
20260506005204 10 299 0.0 3.2 0.00 0.00 0.00 80 1010.2
20260506004704 10 299 0.0 3.2 0.00 0.00 0.00 80 1010.4
20260506004204 10 299 0.0 3.2 0.00 0.00 0.00 80 1010.3
20260506003704 10 299 0.0 3.2 0.00 0.00 0.00 79 1010.4
20260506003204 10 299 0.0 6.4 0.00 0.00 0.00 79 1010.4
20260506002705 10 299 0.0 6.4 0.00 0.00 0.00 79 1010.4
20260506002205 10 300 1.6 6.4 0.00 0.00 0.00 79 1010.5
20260506001705 10 299 1.6 3.2 0.00 0.00 0.00 79 1010.4
20260506001204 10 317 0.0 6.4 0.00 0.00 0.00 80 1010.4
20260506000707 10 316 0.0 6.4 0.00 0.00 0.00 80 1010.4
20260506000205 10 316 1.6 6.4 0.00 0.00 0.00 79 1010.5
20260505235704 10 317 1.6 4.8 0.00 0.00 0.00 79 1010.5
20260505235205 10 317 0.0 6.4 0.00 0.00 0.00 79 1010.5
20260505234708 10 317 0.0 6.4 0.00 0.00 0.00 79 1010.3
20260505234205 10 320 0.0 8.0 0.00 0.00 0.00 79 1010.3
20260505233705 10 320 0.0 8.0 0.00 0.00 0.00 79 1010.4
20260505233214 10 320 0.0 8.0 0.00 0.00 0.00 79 1010.4
20260505232704 10 306 1.6 4.8 0.00 0.00 0.00 79 1010.4
20260505232206 10 312 1.6 4.8 0.00 0.00 0.00 79 1010.4
20260505231705 11 313 0.0 4.8 0.00 0.00 0.00 79 1010.5
20260505230704 11 313 0.0 4.8 0.00 0.00 0.00 79 1010.5
20260505230209 11 313 0.0 6.4 0.00 0.00 0.00 80 1010.4
20260505225703 11 313 0.0 6.4 0.00 0.00 0.00 80 1010.4
20260505225205 11 313 1.6 3.2 0.00 0.00 0.00 80 1010.4
20260505224704 11 316 0.0 8.0 0.00 0.00 0.00 80 1010.4
20260505224205 11 316 0.0 8.0 0.00 0.00 0.00 80 1010.4
20260505222704 11 110 1.6 4.8 0.00 0.00 0.00 82 1010.5
20260505222204 11 135 1.6 3.2 0.00 0.00 0.00 82 1010.3
20260505221204 11 116 0.0 1.6 0.00 0.00 0.00 82 1010.4
20260505220704 11 116 0.0 4.8 0.00 0.00 0.00 81 1010.4
20260505220205 11 116 0.0 4.8 0.00 0.00 0.00 81 1010.4
20260505215716 11 116 0.0 4.8 0.00 0.00 0.00 80 1010.3
20260505214704 12 116 0.0 3.2 0.00 0.00 0.00 78 1010.3
20260505214214 12 121 1.6 1.6 0.00 0.00 0.00 76 1010.3
20260505213705 11 111 0.0 1.6 0.00 0.00 0.00 74 1010.3
20260505213204 11 111 0.0 1.6 0.00 0.00 0.00 73 1010.3
20260505212704 12 111 0.0 1.6 0.00 0.00 0.00 73 1010.2
20260505212236 12 111 0.0 1.6 0.00 0.00 0.00 73 1010.2
20260505211704 12 111 0.0 1.6 0.00 0.00 0.00 72 1010.1
20260505211204 12 111 0.0 1.6 0.00 0.00 0.00 72 1010.1
20260505210706 12 111 0.0 3.2 0.00 0.00 0.00 72 1010.2
20260505205704 12 111 0.0 3.2 0.00 0.00 0.00 71 1010.1
20260505205204 12 111 0.0 3.2 0.00 0.00 0.00 71 1010.2
20260505204709 12 111 0.0 3.2 0.00 0.00 0.00 70 1010.3
20260505204205 12 111 0.0 1.6 0.00 0.00 0.00 71 1010.1
20260505203704 12 111 0.0 3.2 0.00 0.00 0.00 71 1010.1
20260505203204 12 111 0.0 3.2 0.00 0.00 0.00 71 1010.0
20260505202704 12 111 0.0 3.2 0.00 0.00 0.00 72 1010.0
20260505202205 12 111 0.0 3.2 0.00 0.00 0.00 72 1010.0
20260505201204 12 111 0.0 1.6 0.00 0.00 0.00 71 1009.9
20260505200705 12 111 0.0 1.6 0.00 0.00 0.00 71 1009.9
20260505200204 12 111 0.0 4.8 0.00 0.00 0.00 71 1009.8
20260505195705 12 111 0.0 4.8 0.00 0.00 0.00 70 1009.8
20260505195205 12 111 0.0 4.8 0.00 0.00 0.00 70 1009.7
20260505194704 13 111 0.0 4.8 0.00 0.00 0.00 69 1009.6
20260505194204 13 111 0.0 4.8 0.00 0.00 0.00 69 1009.5
20260505193704 13 111 0.0 4.8 0.00 0.00 0.00 69 1009.4
20260505193204 13 111 0.0 1.6 0.00 0.00 0.00 68 1009.3
20260505192704 13 111 0.0 3.2 0.00 0.00 0.00 68 1009.3
20260505192205 13 111 0.0 3.2 0.00 0.00 0.00 68 1009.3
20260505191204 13 111 0.0 1.6 0.00 0.00 0.00 67 1009.0
20260505190704 13 111 0.0 1.6 0.00 0.00 0.00 66 1009.0
20260505190204 13 111 0.0 1.6 0.00 0.00 0.00 66 1008.9
20260505185707 13 111 0.0 3.2 0.00 0.00 0.00 66 1009.1
20260505185205 13 111 0.0 3.2 0.00 0.00 0.00 66 1008.9
20260505184706 13 111 0.0 3.2 0.00 0.00 0.00 65 1008.9
20260505184205 13 111 0.0 3.2 0.00 0.00 0.00 65 1008.8
20260505183204 13 111 0.0 1.6 0.00 0.00 0.00 64 1008.7
20260505182704 14 111 0.0 1.6 0.00 0.00 0.00 63 1008.8
20260505181704 14 111 0.0 1.6 0.00 0.00 0.00 63 1008.7
20260505181204 14 111 0.0 1.6 0.00 0.00 0.00 62 1008.8
20260505180705 14 111 0.0 1.6 0.00 0.00 0.00 61 1008.8
20260505174704 14 111 0.0 4.8 0.00 0.00 0.00 60 1008.9
20260505174205 14 111 0.0 4.8 0.00 0.00 0.00 59 1008.8
20260505173705 14 111 0.0 3.2 0.00 0.00 0.00 59 1008.8
20260505173203 14 111 0.0 3.2 0.00 0.00 0.00 58 1008.8
20260505172704 14 111 0.0 3.2 0.00 0.00 0.00 58 1008.8
20260505172205 15 111 0.0 3.2 0.00 0.00 0.00 57 1008.9
20260505171704 15 111 0.0 3.2 0.00 0.00 0.00 56 1008.8
20260505171205 15 111 0.0 3.2 0.00 0.00 0.00 56 1008.9
20260505170704 15 111 1.6 3.2 0.00 0.00 0.00 57 1008.9
20260505170204 15 113 0.0 3.2 0.00 0.00 0.00 57 1008.9
20260505165727 15 113 0.0 3.2 0.00 0.00 0.00 58 1009.0
20260505165204 15 113 1.6 3.2 0.00 0.00 0.00 57 1009.1
20260505164704 15 110 0.0 3.2 0.00 0.00 0.00 57 1009.1
20260505164204 15 110 0.0 3.2 0.00 0.00 0.00 56 1008.9
20260505163209 15 113 0.0 4.8 0.00 0.00 0.00 56 1008.9
20260505162704 15 113 0.0 4.8 0.00 0.00 0.00 56 1008.9
20260505162204 15 113 0.0 4.8 0.00 0.00 0.00 56 1008.9
20260505161729 15 113 0.0 11.3 0.00 0.00 0.00 56 1008.9
20260505160705 16 111 0.0 11.3 0.00 0.00 0.00 55 1008.9
20260505160204 16 110 3.2 6.4 0.00 0.00 0.00 53 1008.9
20260505153231 16 154 1.6 3.2 0.00 0.00 0.00 56 1008.9
20260505152704 16 155 0.0 4.8 0.00 0.00 0.00 57 1009.1
20260505152215 16 155 1.6 4.8 0.00 0.00 0.00 55 1009.1
20260505151705 16 157 1.6 3.2 0.00 0.00 0.00 55 1009.0
20260505151204 16 161 1.6 4.8 0.00 0.00 0.00 54 1009.1
20260505150704 16 161 1.6 4.8 0.00 0.00 0.00 54 1009.1
20260505150203 16 157 0.0 6.4 0.00 0.00 0.00 55 1009.1
20260505140205 16 125 0.0 8.0 0.00 0.00 0.00 55 1009.2
20260505130205 17 127 0.0 8.0 0.00 0.00 0.00 54 1009.5
20260505124704 17 138 1.6 4.8 0.00 0.00 0.00 54 1009.5
20260505124205 17 258 1.6 4.8 0.00 0.00 0.00 55 1009.5
20260505123704 17 255 0.0 4.8 0.00 0.00 0.00 54 1009.5
20260505123204 17 257 0.0 3.2 0.00 0.00 0.00 56 1009.5
20260505122705 17 258 0.0 3.2 0.00 0.00 0.00 56 1009.5
20260505122205 17 259 0.0 3.2 0.00 0.00 0.00 56 1009.5
20260505121706 17 258 1.6 3.2 0.00 0.00 0.00 56 1009.6
20260505121204 17 259 1.6 3.2 0.00 0.00 0.00 57 1009.5
20260505120704 17 259 1.6 4.8 0.00 0.00 0.00 56 1009.5
20260505120204 17 259 0.0 4.8 0.00 0.00 0.00 56 1009.4
20260505115704 17 259 0.0 4.8 0.00 0.00 0.00 56 1009.5
20260505115204 17 247 1.6 8.0 0.00 0.00 0.00 57 1009.6
20260505114704 17 247 0.0 8.0 0.00 0.00 0.00 56 1009.5
20260505114205 17 275 1.6 8.0 0.00 0.00 0.00 56 1009.6
20260505113705 17 292 3.2 6.4 0.00 0.00 0.00 56 1009.5
20260505111704 17 288 3.2 6.4 0.00 0.00 0.00 60 1009.7
20260505111204 16 285 3.2 6.4 0.00 0.00 0.00 59 1009.8
20260505110704 16 303 0.0 8.0 0.00 0.00 0.00 61 1009.7
20260505110204 16 303 1.6 9.7 0.00 0.00 0.00 62 1009.8
20260505102205 16 292 1.6 8.0 0.00 0.00 0.00 66 1010.1
20260505101711 15 290 1.6 8.0 0.00 0.00 0.00 66 1010.1
20260505101204 15 295 3.2 14.5 0.00 0.00 0.00 67 1010.2
20260505100704 15 269 3.2 14.5 0.00 0.00 0.00 68 1010.2
20260505100204 15 228 1.6 14.5 0.00 0.00 0.00 69 1010.2
20260505095704 15 238 3.2 9.7 0.00 0.00 0.00 68 1010.3
20260505095204 15 234 3.2 9.7 0.00 0.00 0.00 67 1010.2
20260505094704 15 271 3.2 9.7 0.00 0.00 0.00 67 1010.3
20260505094205 15 286 3.2 6.4 0.00 0.00 0.00 68 1010.3
20260505093704 15 295 3.2 6.4 0.00 0.00 0.00 69 1010.3
20260505093204 15 292 1.6 6.4 0.00 0.00 0.00 71 1010.3
20260505092705 15 288 1.6 6.4 0.00 0.00 0.00 71 1010.3
20260505092204 15 298 1.6 4.8 0.00 0.00 0.00 72 1010.3
20260505091704 14 300 1.6 4.8 0.00 0.00 0.00 74 1010.5
20260505091204 13 299 0.0 4.8 0.00 0.00 0.00 74 1010.4
20260505090204 13 298 1.6 3.2 0.00 0.00 0.00 73 1010.5
20260505085704 13 299 1.6 3.2 0.00 0.00 0.00 75 1010.5
20260505085205 13 299 1.6 3.2 0.00 0.00 0.00 75 1010.6
20260505084704 13 299 1.6 3.2 0.00 0.00 0.00 76 1010.6
20260505084210 13 300 1.6 4.8 0.00 0.00 0.00 77 1010.7
20260505083205 12 302 0.0 6.4 0.00 0.00 0.00 78 1010.6
20260505082705 12 303 0.0 6.4 0.00 0.00 0.00 79 1010.6
20260505082204 12 302 0.0 4.8 0.00 0.00 0.00 79 1010.7
20260505081704 12 302 1.6 6.4 0.00 0.00 0.00 79 1010.7
20260505081204 12 303 1.6 6.4 0.00 0.00 0.00 79 1010.6
20260505080705 12 303 1.6 6.4 0.00 0.00 0.00 78 1010.7
20260505080205 12 309 1.6 4.8 0.00 0.00 0.00 79 1010.6
20260505075705 12 305 0.0 4.8 0.00 0.00 0.00 79 1010.6
20260505075205 12 299 1.6 4.8 0.00 0.00 0.00 80 1010.6
20260505074704 12 299 0.0 4.8 0.00 0.00 0.00 81 1010.6
20260505074204 12 299 0.0 4.8 0.00 0.00 0.00 81 1010.6
20260505073705 12 299 1.6 4.8 0.00 0.00 0.00 81 1010.5
20260505073204 12 299 1.6 4.8 0.00 0.00 0.00 82 1010.5
20260505072205 12 299 1.6 4.8 0.00 0.00 0.00 82 1010.6
20260505071706 12 300 1.6 4.8 0.00 0.00 0.00 83 1010.6
20260505071204 12 300 0.0 6.4 0.00 0.00 0.00 83 1010.7
20260505070704 11 300 0.0 6.4 0.00 0.00 0.00 83 1010.8
20260505070214 11 300 1.6 6.4 0.00 0.00 0.00 84 1010.7
20260505065703 11 300 1.6 6.4 0.00 0.00 0.00 83 1010.8
20260505065204 11 288 1.6 6.4 0.00 0.00 0.00 84 1010.8